Terug naar catalogus

FLOCK 4Q 31

ActiefWetenschapPO
NORAD 58285·PAYLOAD·🇺🇸 United States

Gelanceerd Nov 11, 2023 vanaf Vandenberg Space Force Base

Loading…

Volgende Passages (komende 24 uur)

TLE

VersSource: Space-Track

Epoch: Sep 14, 2026, 00:05 UTC

1 58285U 23174AF  26257.00358691  .00342605  00000-0  14882-2 0  9994
2 58285  97.3824 353.8670 0006681 230.6304 129.4374 15.83925314159707

Volg FLOCK 4Q 31 in realtime met AllMySat

Download on the App Store